Location: Atherton
(17.2661°S, 145.4859°E)
Time: 05:04:05
(UTC+10:00)

Transit 4A - Pass Details

Date: 29 June 2025
Orbit: 868 x 973 km, 66.8° (Epoch: 20 July)

Event Time Altitude Azimuth Distance (km) Brightness Sun altitude
Rises 20:35:01 0° 335° (NNW) 3,435 11.4 -36.8°
Reaches altitude 10° 20:37:28 10° 333° (NNW) 2,505 10.6 -37.4°
Enters shadow 20:39:45 25° 328° (NNW) 1,688 9.5 -37.9°
